Weather History for Meriden, CT

Change the Weather History Date:

Friday, October 12, 2012

  Actual Average (KHVN) Record (KHVN)
Temperature  
Mean Temperature 45 °F -  
Max Temperature 57 °F 61 °F 76 °F (1990)
Min Temperature 34 °F 46 °F 34 °F (1988)
Degree Days  
Heating Degree Days 20    
Moisture  
Dew Point 32 °F    
Average Humidity 65    
Maximum Humidity 96    
Minimum Humidity 33    
Precipitation  
Precipitation 0.02 in - - ()
Sea Level Pressure  
Sea Level Pressure 30.17 in    
Wind  
Wind Speed 4 mph (NW)    
Max Wind Speed 18 mph    
Max Gust Speed 24 mph    
Visibility 10 miles    
Events Rain    
Averages and records for this station are not official NWS values.
T = Trace of Precipitation, MM = Missing Value Source: NWS Daily Summary

Daily Weather History Graph

Daily Weather History Graph

Search for Another Location

Airport:

Trip Planner

Search our weather history database for the weather conditions in past years. The results will help you decide how hot, cold, wet, or windy it might be!

Date:

Astronomy

Oct. 12, 2012 Rise Set
Actual Time 7:00 AM EDT 6:14 PM EDT
Civil Twilight 6:32 AM EDT 6:42 PM EDT
Nautical Twilight 6:00 AM EDT 7:14 PM EDT
Astronomical Twilight 5:28 AM EDT 7:46 PM EDT
Moon 3:38 AM EDT (10/12) 4:24 PM EDT (10/12)
Length of Visible Light 12h 09m
Length of Day
11h 13m
Waning Crescent, 11% of the Moon is Illuminated
Oct 12
Waning Crescent
Oct 15
New
Oct 21
First Quarter
Oct 29
Full
Nov 6
Last Quarter

Hourly Weather History & Observations

Time (EDT) Temp. Windchill Dew Point Humidity Pressure Visibility Wind Dir Wind Speed Gust Speed Precip Events Conditions
12:53 AM 39.9 °F - 37.0 °F 89% 30.14 in 10.0 mi Calm Calm - N/A   Clear
2:53 AM 37.0 °F - 35.1 °F 93% 30.09 in 10.0 mi Calm Calm - N/A   Clear
4:53 AM 37.9 °F - 35.1 °F 89% 30.07 in 10.0 mi Calm Calm - N/A   Clear
5:53 AM 35.1 °F - 34.0 °F 96% 30.06 in 10.0 mi Calm Calm - N/A   Clear
6:53 AM 36.0 °F - 34.0 °F 93% 30.06 in 9.0 mi Calm Calm - N/A   Clear
7:53 AM 39.0 °F - 37.0 °F 93% 30.06 in 10.0 mi Calm Calm - N/A   Clear
8:53 AM 48.0 °F - 41.0 °F 77% 30.07 in 10.0 mi Calm Calm - N/A   Clear
9:53 AM 51.1 °F - 37.9 °F 61% 30.10 in 10.0 mi NW 9.2 mph - N/A   Overcast
10:53 AM 46.9 °F - 41.0 °F 80% 30.13 in 10.0 mi NNW 6.9 mph - 0.02 in Rain Light Rain
1:53 PM 52.0 °F - 36.0 °F 54% 30.14 in 10.0 mi NNW 10.4 mph - N/A   Overcast
2:53 PM 55.0 °F - 32.0 °F 42% 30.14 in 10.0 mi NNW 13.8 mph 19.6 mph N/A   Mostly Cloudy
3:53 PM 55.9 °F - 28.0 °F 34% 30.15 in 10.0 mi NW 18.4 mph 24.2 mph N/A   Scattered Clouds
4:53 PM 54.0 °F - 25.0 °F 33% 30.17 in 10.0 mi NNW 10.4 mph 21.9 mph N/A   Clear
5:53 PM 52.0 °F - 27.0 °F 38% 30.21 in 10.0 mi NW 11.5 mph - N/A   Scattered Clouds
6:53 PM 48.9 °F - 26.1 °F 41% 30.27 in 10.0 mi NW 9.2 mph 20.7 mph N/A   Partly Cloudy
7:53 PM 46.9 °F - 24.1 °F 41% 30.31 in 10.0 mi NNW 5.8 mph - N/A   Clear
8:53 PM 45.0 °F 39.7 °F 24.1 °F 44% 30.33 in 10.0 mi NW 10.4 mph - N/A   Clear
10:53 PM 39.0 °F 36.8 °F 27.0 °F 62% 30.39 in 10.0 mi NW 3.5 mph - N/A   Clear
11:53 PM 34.0 °F - 28.0 °F 79% 30.42 in 10.0 mi Calm Calm - N/A   Clear